Notices

What's New in latest Release from April 7th, 2021:

- Updated Glossary, including Speed of Maximum Gust, and Total Hourly Precipitation

- Updated national and regional climate services offices contacts and prices information

- Addition of station inventory lists for 1981-2010, 1971-2000, and 1961-1990 Normals.

If you haven't already, please take our survey and provide feedback about our website: https://eccc.sondage-survey.ca/f/LanguageSelection.aspx?s=442ca660-fcf1-47c0-95a9-59707d6fd709

Hourly Data Report for August 08, 2004

SHERBROOKE A
QUEBEC

45°26'00.000" N
71°41'00.000" W
241.40 m
7028124
71610
YSC

Download Data

Hourly Data (August 2004)
Hourly Data Report for August 8, 2004
TIME
LST
Temp Definition
°C
Dew Point Definition
°C
Rel Hum Definition
%
Precip. Amount Definition
mm

Wind Dir Definition
10's deg

Wind Spd Definition
km/h
Visibility Definition
km
Stn Press Definition
kPa
Hmdx Definition


Wind Chill Definition


Weather Definition


00:00 11.4 10.9 97   22 7 15.0 98.44      
01:00 11.8 11.2 96   22 7 15.0 98.44      
02:00 11.5 11.1 97   26 6 15.0 98.44      
03:00 11.3 10.8 97   24 7 11.3 98.44      
04:00 11.4 10.8 96   21 4 15.0 98.48      
05:00 9.4 9.0 97     0 1.8 98.52      
06:00 11.0 10.6 97     0 15.0 98.56      
07:00 12.9 12.1 95   25 7 16.1 98.58     Cloudy
08:00 13.8 12.7 93   25 7 16.1 98.61     Cloudy
09:00 14.4 12.7 90   24 9 16.1 98.60     Cloudy
10:00 15.9 12.8 82   27 15 19.3 98.58     Cloudy
11:00 16.6 13.0 79   23 11 19.3 98.56     Mostly Cloudy
12:00 19.1 13.7 71   26 17 24.1 98.49     Mostly Cloudy
13:00 20.5 13.4 64   27 15 24.1 98.41     Mostly Cloudy
14:00 19.1 11.1 60   27 13 24.1 98.39     Mostly Cloudy
15:00 14.2 12.1 87   25 13 12.9 98.51     Rain Showers
16:00 15.6 12.7 83   25 7 24.1 98.52     Mostly Cloudy
17:00 16.8 12.5 76   25 15 15.0 98.51      
18:00 15.5 12.1 80   22 11 15.0 98.54      
19:00 14.2 12.2 88   23 7 15.0 98.57      
20:00 13.5 12.2 92   23 7 15.0 98.62      
21:00 13.5 12.1 91   32 9 15.0 98.68     Moderate Rain
22:00 12.3 11.3 94   23 7 15.0 98.64      
23:00 11.9 11.0 94   23 6 15.0 98.62      

Notes on Data Quality.

Legend

  • E = Estimated
  • M = Missing
  • NA = Not Available*
  • [empty] = Indicates an unobserved value
Date modified: